STARLINK-2150, 47739

Orbit data source: Space-Track

STARLINK-2150, 47739 is a payload satellite owned by SpaceX/Seattle (US) in LEO that was launched on Thu, 04 Mar 2021 UTC via an FALCON 9 launch vehicle from the Air Force Eastern Test Range (AFETR). Payload-class satellites include a variety of spacecraft equipped with specific instruments for various scientific and technological missions. These include communications satellites like Starlink; space stations such as the ISS; scientific satellites like the Hubble; Earth observation satellites from companies like Planet Labs, Umbra, and HawkEye 360; GPS; miniature CubeSats for education and research; and military/defense satellites.

Loading next visibility...
Identifier
47739, 2021-017T
Orbit
LEO
Country
Flag of USUS
Related business
Manufacturer
SpaceX/Seattle
Mission
Operational Commercial Communications
Bus & Motor
STARLINK, Unknown motor
Mass
260 kg wet, ~248 kg dry
Launch date (UTC)
2021-03-04 (5 years ago)
Launch vehicle
FALCON 9
Launch site
Air Force Eastern Test Range (AFETR)
Object type
Payload
Rocket body
Debris
Shape & HBR
Box + 1 Pan, 10.1 m
Radar Cross Section
13.562 m², Large (>1 m²)

Expand to show TLE details & history
Last TLE update: 9 hours ago

TLE from 9 hours ago
0 STARLINK-2150
1 47739U 21017T   25346.98954719 -.00001289  00000-0 -67698-4 0  9995
2 47739  53.0554 255.8317 0001507  94.1607 265.9554 15.06385767264506
Epoch: 2025-12-12T23:44Z
TLE epoch observation values (Epoch: 2025-12-12T23:44:56.877Z)
Latitude
-0.00003°
Longitude
177.67144°
Altitude
548.208 km
Speed
7.589 km/s
True Right ascension
17h 03m 19s
True Declination
0° 00' 00"
Sunlit
Object was in daylight at epoch
Visualization orbit readout
Latitude
Unknown
Longitude
Unknown
Altitude
Unknown
Speed
Unknown
Apparent Right ascension
Unknown
Apparent Declination
Unknown
Sunlit
N/A
Visualization observer readout
Local Sidereal Time
07:26:32
Azimuth
Unknown
Elevation
Unknown
Doppler factor
Unknown
Orbital elements
Apogee altitude
548.569 km
Perigee altitude
546.482 km
Semi-major axis
6,925.663 km
Eccentricity
0.00015
Inclination
53.0554°
RAAN
255.8317°
Arg. of periapsis
94.1607°
True anomaly
265.93817°
Mean anomaly
265.9554°
Eccentric anomaly
265.94679°
Mean motion
3.76575 °/min
Orbital period
95.6 mins
BSTAR
-0.000067698
Loading maneuver chart data...
Computing Atmospheric mass density...

Documentation

Showing up to 5 results
|